Etusivu
METAR-TAF:

METAR-TAF

Lentoasemat :

Harlan Municipal Airport

Harlan, Iowa, Yhdysvallat

Leveyspiiri: 41-35-04N, Pituuspiiri: 095-20-23W, korkeus merenpinnasta: 375 m

Tämänhetkinen sää

Tämä raportti tehtiin 14 minuuttia sitten, kello 19.15 UTC
Tuuli 12 kn pohjoisen/luoteesta puuskistuen 18 kn:hen
Lämpötila 0°C
Kosteus 40%
Ilmanpaine 1026 hPa
Näkyvyys: 16.1 km
selkeää

METAR: KHNR 261915Z AUTO 34012G18KT 10SM CLR 00/M12 A3031 RMK AO2

Aika: 13:29 (19:29 UTC)


TAF: puuttuu

Säähavainnot ja -ennusteet yli 4000 lentoasemalta (METAR- ja TAF-raportit).

Käytössä olevat sääasemat on merkitty karttaan keltaisilla ja punaisilla pisteillä.

Aseta hiiri pisteen päälle nähdäksesi sääaseman nimen.

Klikkaa sitten nähdäksesi säähavainnot ja -ennusteet.

Kartan vaihtaminen: klikkaa mustalla rastilla varustettuja vihreitä pisteitä, niin voit zoomata sisään; viivalla varustettua vihreää pistettä, niin voit zoomata ulos tai vihreitä nuolia, niin pääset viereisille kartoille.


METAR-TAF: